SL-14 DEB, 45276

Orbit data source: Space-Track

SL-14 DEB, 45276 is space debris in LEO originally from a launch on Thu, 15 Aug 1991 UTC launched from the Plesetsk Missile And Space Complex (PKMTR). Debris objects in space refer to the collection of defunct objects orbiting the Earth. Examples of debris include non-operational satellites, rocket bodies, and fragments generated from explosions, collisions, or faulty payload assembly.

Loading next visibility...
Identifier
45276, 1991-056N
Orbit
LEO
Country
Flag of CISCIS
Related business
Manufacturer
Unknown
Mission
Spacecraft
Bus & Motor
Unknown
Mass
Unknown
Launch date (UTC)
1991-08-15 (35 years ago)
Launch vehicle
Unknown
Launch site
Plesetsk Missile And Space Complex (PKMTR)
Object type
Payload
Rocket body
Debris
Shape & HBR
Unknown shape, 0.1 m
Radar Cross Section
Medium (>0.1 m² and <1 m²)

Expand to show TLE details & history
Last TLE update: 6 hours ago

TLE from 6 hours ago
0 SL-14 DEB
1 45276U 91056N   26177.76028273  .00001420  00000-0  30489-2 0  9996
2 45276  82.5871 109.7488 0045849 290.9623  68.6603 13.28877559308381
Epoch: 2026-06-26T18:14Z
TLE epoch observation values (Epoch: 2026-06-26T18:14:48.427Z)
Latitude
-0.00006°
Longitude
-78.83715°
Altitude
1,141.399 km
Speed
7.288 km/s
True Right ascension
07h 18m 59s
True Declination
0° 00' 00"
Sunlit
Object was in daylight at epoch
Visualization orbit readout
Latitude
Unknown
Longitude
Unknown
Altitude
Unknown
Speed
Unknown
Apparent Right ascension
Unknown
Apparent Declination
Unknown
Sunlit
N/A
Visualization observer readout
Local Sidereal Time
11:42:48
Azimuth
Unknown
Elevation
Unknown
Doppler factor
Unknown
Orbital elements
Apogee altitude
1,182.734 km
Perigee altitude
1,113.719 km
Semi-major axis
7,526.364 km
Eccentricity
0.00458
Inclination
82.5871°
RAAN
109.7488°
Arg. of periapsis
290.9623°
True anomaly
69.15069°
Mean anomaly
68.6603°
Eccentric anomaly
68.90539°
Mean motion
3.32403 °/min
Orbital period
108.3 mins
BSTAR
0.0030489
Loading maneuver chart data...
Computing Atmospheric mass density...
Loading historical data...
Loading historical data...
Loading historical data...
Loading historical data...
Loading historical data...
Loading historical data...
Loading historical data...

Documentation

Showing up to 5 results
|